Regional Weather Roundup
Issued by NWS Little Rock, AR

Home | Current Version | Previous Version | Graphics & Text | Print | Product List | Glossary On
Versions: 1 2 3 4 5 6 7 8 9 10 11 12 13 14 15 16 17 18 19 20 21 22 23 24 25 26 27 28 29 30 31 32 33 34 35 36 37 38 39 40 41 42 43 44 45 46 47 48 49 50
000
ASUS44 KLZK 260605
RWRLZK

WEATHER ROUNDUP FOR ARKANSAS
NATIONAL WEATHER SERVICE LITTLE ROCK AR
100 AM CDT TUE MAY 26 2015

NOTE: "FAIR" INDICATES FEW OR NO CLOUDS BELOW 12,000 FEET WITH NO
SIGNIFICANT WEATHER AND/OR OBSTRUCTIONS TO VISIBILITY.

ARZ001-003-010-029-260700-
NORTHWEST ARKANSAS

CITY           SKY/WX    TMP DP  RH WIND       PRES   REMARKS
FAYETTEVILLE   CLOUDY    61  60  97 SW13      29.86R
6HR MIN TEMP:  61; 6HR MAX TEMP:  72; 6HR PCP:  0.38;

FORT SMITH     CLOUDY    63  59  87 E5        29.87S
6HR MIN TEMP:  63; 6HR MAX TEMP:  66; 6HR PCP:  0.28;

HARRISON       LGT RAIN  62  60  93 SE10      29.84F
6HR MIN TEMP:  62; 6HR MAX TEMP:  74; 6HR PCP:  0.99;

BENTONVILLE    CLOUDY   N/A N/A N/A SW10      29.84R
                                      6HR PCP:  0.28;

ROGERS         CLOUDY    63  59  87 SW13G20   29.84S
6HR MIN TEMP:  63; 6HR MAX TEMP:  74;

SILOAM SPGS    CLOUDY    63  55  77 S12       29.86R
6HR MIN TEMP:  61; 6HR MAX TEMP:  72; 6HR PCP:  1.03;

HIGHFILL       CLOUDY    63  60  90 S10       29.84R
6HR MIN TEMP:  63; 6HR MAX TEMP:  75; 6HR PCP:  0.34;

$$

ARZ004-005-016-260700-
NORTH CENTRAL ARKANSAS

CITY           SKY/WX    TMP DP  RH WIND       PRES   REMARKS
BATESVILLE     CLOUDY    64  63  94 SE5       29.94R
6HR MIN TEMP:  64; 6HR MAX TEMP:  79; 6HR PCP:  0.50;

FLIPPIN        CLOUDY    63  61  94 CALM      29.88R
6HR MIN TEMP:  63; 6HR MAX TEMP:  77; 6HR PCP:  0.45;

MTN HOME       CLOUDY    62  62 100 SE8       29.89F
6HR MIN TEMP:  62; 6HR MAX TEMP:  74; 6HR PCP:  0.36;

$$

ARZ040-041-260700-
WEST CENTRAL ARKANSAS

CITY           SKY/WX    TMP DP  RH WIND       PRES   REMARKS
MENA           CLOUDY    61  61 100 W5        29.94R
MOUNT IDA      CLOUDY    62  59  90 VRB5      29.89R
6HR MIN TEMP:  61; 6HR MAX TEMP:  72; 6HR PCP:  0.88;

$$

ARZ009-017-025-026-028-260700-
NORTHEAST ARKANSAS

CITY           SKY/WX    TMP DP  RH WIND       PRES   REMARKS
CORNING        MOCLDY    73  66  78 W15G25    29.94S
JONESBORO      CLOUDY    70  64  81 W9        29.95S
6HR MIN TEMP:  71; 6HR MAX TEMP:  79;

NEWPORT        LGT RAIN  67  65  93 SW7       29.96F
6HR MIN TEMP:  67; 6HR MAX TEMP:  79; 6HR PCP:  0.02;

WALNUT RIDGE   CLOUDY    66  63  88 W7        29.95F
6HR MIN TEMP:  66; 6HR MAX TEMP:  79; 6HR PCP:  0.07;

BLYTHEVILLE    CLOUDY    74  70  87 S15       29.96F
6HR MIN TEMP:  73; 6HR MAX TEMP:  79;

$$

ARZ022-023-033-042-044-260700-
CENTRAL ARKANSAS

CITY           SKY/WX    TMP DP  RH WIND       PRES   REMARKS
LITTLE ROCK    LGT RAIN  64  60  87 S3        29.96F
6HR MIN TEMP:  64; 6HR MAX TEMP:  76; 6HR PCP:  1.14;

N LITTLE ROCK    N/A     63  63 100 S8        29.96F
6HR MIN TEMP:  63; 6HR MAX TEMP:  74;

JACKSONVILLE   LGT RAIN  64  63  99 S5        29.95F
6HR MIN TEMP:  64; 6HR MAX TEMP:  74; 6HR PCP:  1.22;

SEARCY         LGT RAIN  64  63  96 S6        29.98F
6HR MIN TEMP:  64; 6HR MAX TEMP:  78; 6HR PCP:  0.64;

HOT SPRINGS    LGT RAIN  62  61  96 SE12      29.89F
6HR MIN TEMP:  62; 6HR MAX TEMP:  79; 6HR PCP:  1.33;

RUSSELLVILLE   LGT RAIN  63  61  93 E12G25    29.82F
6HR MIN TEMP:  63; 6HR MAX TEMP:  64; 6HR PCP:  1.24;

CLINTON        LGT RAIN  64  64 100 CALM      29.94F
$$

ARZ036-260700-
EAST ARKANSAS

CITY           SKY/WX    TMP DP  RH WIND       PRES   REMARKS
WEST MEMPHIS   CLOUDY    74  70  87 S17       29.96R
6HR MIN TEMP:  73; 6HR MAX TEMP:  80;

$$

ARZ050-053-066-070-073-260700-
SOUTHWEST ARKANSAS

CITY           SKY/WX    TMP DP  RH WIND       PRES   REMARKS
ARKADELPHIA    LGT RAIN  63  63 100 E6        29.91F
6HR MIN TEMP:  63; 6HR MAX TEMP:  78; 6HR PCP:  1.84;

CAMDEN         LGT RAIN  63  59  88 NE10      29.97F
TEXARKANA      CLOUDY    62  61  96 S5        29.91R
6HR MIN TEMP:  61; 6HR MAX TEMP:  63; 6HR PCP:  1.09;

EL DORADO      LGT RAIN  62  61  96 S10       30.00F
6HR MIN TEMP:  62; 6HR MAX TEMP:  78;

$$

ARZ056-057-069-260700-
SOUTHEAST ARKANSAS

CITY           SKY/WX    TMP DP  RH WIND       PRES   REMARKS
PINE BLUFF     LGT RAIN  63  61  93 CALM      29.96F
6HR MIN TEMP:  63; 6HR MAX TEMP:  81; 6HR PCP:  0.29;

STUTTGART      CLOUDY    64  61  88 MISG      29.98F
6HR MIN TEMP:  64; 6HR MAX TEMP:  82; 6HR PCP:  0.14;

MONTICELLO     CLOUDY    63  63 100 SE6       29.99F
6HR MIN TEMP:  63; 6HR MAX TEMP:  82; 6HR PCP:  0.43;


$$




USA.gov is the U.S. government's official web portal to all federal, state and local government web resources and services.